Flag for China Weather past 2 weeks in Kashgar, Xinjiang, China

Now
95 °F

Passing clouds.


Feels Like: 91 °F
Forecast: 72 / 95 °F
Wind: 3 mph from Southeast

Location: Kashi Airport

Current Time: Jul 28, 2014 at 7:58:24 PM

Latest Report: Jul 28, 2014 at 7:00 PM


Visibility: 4 mi

Pressure: 29.56 "Hg

Humidity: 19%

Dew point: 46 °F

Location of KashgarLocation

Historic Weather in Kashgar — Graph

°F

Kashgar temperature yesterday

Maximum temperature yesterday: 93 °F (at 5:00 PM)
Minimum temperature yesterday: 82 °F (at 5:00 AM)
Average temperature yesterday: 87 °F

Past Weeks' High & Low Weather Summary

 TemperatureHumidityPressure
High99 °F (Jul 24, 5:00 PM)78% (Jul 18, 5:00 AM)30.01 "Hg (Jul 18, 5:00 AM)
Low63 °F (Jul 18, 8:00 AM)9% (Jul 16, 2:00 PM)29.59 "Hg (Jul 15, 7:00 PM)
Average83 °F26%29.81 "Hg
* Reported Jul 13 6:00 PM — Jul 28 6:00 PM, Kashgar, Weather by CustomWeather, © 2014

Note: Actual official high and low records may vary slightly from our data, if they occured in-between our weather recording intervals... More about our weather records

Advertising

Kashgar weather history for previous 24 hours

 ConditionsComfort  
Time TempWeatherWind HumidityBarometerVisibility
6:00 PM
Jul 28
93 °FClear.8 mph20%29.59 "Hg4 mi
5:00 PM97 °FClear.10 mph14%29.59 "Hg5 mi
4:00 PM95 °FClear.8 mph18%29.62 "Hg4 mi
3:00 PM93 °FClear.10 mph19%29.65 "Hg4 mi
2:00 PM91 °FClear.10 mph21%29.68 "Hg4 mi
1:00 PM90 °FClear.8 mph24%29.71 "Hg4 mi
12:00 PM88 °FClear.8 mph25%29.74 "Hg5 mi
11:00 AM88 °FSunny.6 mph13%29.77 "Hg10 mi
10:00 AM84 °FClear.3 mph20%29.77 "Hg5 mi
9:00 AM81 °FClear.8 mph26%29.77 "Hg5 mi
8:00 AM79 °FClear.10 mph30%29.77 "Hg4 mi
7:00 AM81 °FClear.8 mph28%29.77 "Hg4 mi
6:00 AM82 °FClear.8 mph26%29.77 "Hg4 mi
5:00 AM84 °FClear.6 mph25%29.77 "Hg4 mi
4:00 AM84 °FClear.6 mph25%29.80 "Hg4 mi
3:00 AM86 °FClear.8 mph24%29.80 "Hg4 mi
2:00 AM84 °FClear.8 mph27%29.80 "Hg4 mi
1:00 AM86 °FClear.6 mph25%29.80 "Hg4 mi
12:00 AM88 °FClear.6 mph25%29.80 "Hg4 mi
11:00 PM
Jul 27
88 °FClear.6 mph27%29.80 "Hg4 mi
10:00 PM88 °FClear.8 mph29%29.77 "Hg5 mi
9:00 PM91 °FClear.6 mph24%29.74 "Hg5 mi
8:00 PM91 °FClear.6 mph21%29.74 "Hg5 mi
7:00 PM91 °FClear.6 mph24%29.77 "Hg5 mi
Weather by CustomWeather, © 2014

See weather overviewHow to use our weather pages